Home   Weather   Chicago   Past weeks
Flag for USA

Past Weather in Chicago, Illinois, USA — Yesterday and Last 2 Weeks

Now
73 °F

Light rain. Broken clouds.


Feels Like: 68 °F
Forecast: 86 / 76 °F
Wind: 16 mph from Southeast

Location: Chicago Midway Airport

Current Time: Jul 18, 2019 at 1:18:36 pm

Latest Report: Jul 18, 2019 at 12:29 pm


Visibility: 10 mi

Pressure: 29.91 "Hg

Humidity: 100%

Dew Point: 73 °F

Location of ChicagoLocation

Past Weather in Chicago — Graph

°F

Chicago Temperature Yesterday

Maximum temperature yesterday: 90 °F (at 3:53 pm)
Minimum temperature yesterday: 75 °F (at 3:53 am)
Average temperature yesterday: 82 °F

High & Low Weather Summary for the Past Weeks

 TemperatureHumidityPressure
High95 °F (Jul 10, 2:53 pm)100% (Jul 18, 9:18 am)30.09 "Hg (Jul 18, 9:18 am)
Low62 °F (Jul 12, 5:53 am)34% (Jul 9, 3:53 pm)29.80 "Hg (Jul 10, 7:53 pm)
Average79 °F67%29.94 "Hg
* Reported Jul 3 12:53 pm — Jul 18 12:09 pm, Chicago. Weather by CustomWeather, © 2019

Note: Actual official high and low records may vary slightly from our data, if they occured in-between our weather recording intervals... More about our weather records

Advertising

Chicago Weather History for the Previous 24 Hours

Scroll right to see more
 ConditionsComfort  
Time TempWeatherWind HumidityBarometerVisibility
12:09 pm
Thu, Jul 18
71 °FThunderstorms. Fog.9 mph100%29.96 "Hg4 mi
11:57 am72 °FStrong thunderstorms. Fog.12 mph97%29.99 "Hg1 mi
11:11 am73 °FRain. Mostly cloudy.7 mph100%29.94 "Hg7 mi
10:53 am73 °FThunderstorms. Fog.7 mph100%29.91 "Hg5 mi
10:35 am73 °FThunderstorms. Fog.7 mph100%29.93 "Hg2 mi
10:11 am73 °FStrong thunderstorms. Fog.6 mph100%29.96 "Hg4 mi
10:00 am73 °FStrong thunderstorms. Fog.No wind100%29.95 "Hg2 mi
9:29 am73 °FStrong thunderstorms. Fog.3 mph100%29.93 "Hg3 mi
9:18 am73 °FStrong thunderstorms. Fog.5 mph100%29.94 "Hg1 mi
8:53 am74 °FStrong thunderstorms. Fog.8 mph94%29.90 "Hg5 mi
7:53 am75 °FThunderstorms. Fog.9 mph94%29.85 "Hg5 mi
7:09 am78 °FThunderstorms. Cloudy.14 mph82%29.88 "Hg10 mi
6:53 am77 °FPartly sunny.9 mph85%29.83 "Hg10 mi
5:53 am77 °FPartly sunny.7 mph88%29.84 "Hg10 mi
4:53 am77 °FPassing clouds.5 mph88%29.83 "Hg10 mi
3:53 am78 °FPassing clouds.8 mph87%29.82 "Hg10 mi
2:53 am79 °FMostly cloudy.7 mph84%29.83 "Hg10 mi
1:53 am80 °FOvercast.6 mph81%29.84 "Hg10 mi
12:53 am80 °FPassing clouds.5 mph81%29.84 "Hg10 mi
11:53 pm
Wed, Jul 17
81 °FMostly cloudy.3 mph77%29.84 "Hg10 mi
10:53 pm81 °FOvercast.5 mph74%29.85 "Hg10 mi
9:53 pm81 °FPassing clouds.6 mph77%29.85 "Hg10 mi
8:53 pm80 °FPassing clouds.5 mph76%29.83 "Hg10 mi
7:53 pm79 °FOvercast.7 mph79%29.83 "Hg10 mi
6:53 pm81 °FCloudy.10 mph77%29.86 "Hg10 mi
6:37 pm80 °FCloudy.7 mph76%29.91 "Hg7 mi
6:14 pm80 °FThunderstorms. Fog.12 mph74%29.91 "Hg3 mi
5:53 pm87 °FBroken clouds.10 mph57%29.85 "Hg10 mi
4:53 pm88 °FBroken clouds.9 mph57%29.86 "Hg10 mi
3:53 pm90 °FBroken clouds.9 mph56%29.86 "Hg10 mi
2:53 pm88 °FBroken clouds.7 mph57%29.87 "Hg10 mi
1:53 pm85 °FBroken clouds.9 mph59%29.89 "Hg10 mi
Weather by CustomWeather, © 2019

See weather overview